N3HBJ Weather Reports


Display with metric or nautical units.
time (UTC)temp
F
wind
direction
speed
MPH
gust
MPH
rain 1hr
in
rain 24hr
in
rain mn
in
humidity
%
barometer
mb
20260506224111 51 199 0.0 0.0 0.00 0.31 0.31 81 1011.0
20260506223605 51 199 0.0 0.0 0.00 0.31 0.31 81 1011.0
20260506223105 51 199 0.0 0.0 0.00 0.31 0.31 82 1011.0
20260506222824 51 199 0.0 2.0 0.00 0.31 0.31 81 1011.0
20260506222120 51 199 0.0 3.0 0.00 0.31 0.31 82 1010.8
20260506221828 51 216 0.0 3.0 0.00 0.31 0.31 81 1010.6
20260506221106 51 180 1.0 4.0 0.00 0.31 0.31 81 1010.5
20260506220603 51 193 1.0 6.0 0.00 0.31 0.31 81 1010.3
20260506220104 51 241 1.0 6.0 0.00 0.31 0.31 81 1010.2
20260506215604 51 217 1.0 7.0 0.00 0.31 0.31 81 1010.2
20260506215321 51 223 1.0 7.0 0.00 0.31 0.31 80 1010.2
20260506214559 52 213 1.0 8.0 0.00 0.31 0.31 80 1010.3
20260506214314 52 228 1.0 8.0 0.00 0.31 0.31 79 1010.3
20260506213556 52 288 2.0 8.0 0.00 0.31 0.31 78 1010.1
20260506213056 53 257 1.0 8.0 0.00 0.31 0.31 78 1010.1
20260506212823 53 250 1.0 7.0 0.00 0.31 0.31 78 1010.0
20260506212056 53 180 1.0 7.0 0.00 0.31 0.31 78 1009.8
20260506211556 53 182 1.0 7.0 0.00 0.31 0.31 78 1009.7
20260506211055 53 219 1.0 7.0 0.00 0.31 0.31 79 1009.6
20260506210553 53 182 1.0 6.0 0.00 0.31 0.31 78 1009.5
20260506210101 53 223 2.0 7.0 0.00 0.31 0.31 78 1009.4
20260506205549 53 311 1.0 10.0 0.00 0.31 0.31 78 1009.4
20260506205047 54 202 1.0 10.0 0.00 0.31 0.31 77 1009.4
20260506204548 54 130 1.0 10.0 0.00 0.31 0.31 78 1009.3
20260506204050 54 163 1.0 10.0 0.00 0.31 0.31 78 1009.3
20260506203548 54 222 1.0 6.0 0.00 0.31 0.31 79 1009.3
20260506203047 55 236 0.0 6.0 0.00 0.31 0.31 79 1009.2
20260506202545 55 210 1.0 6.0 0.00 0.31 0.31 79 1009.2
20260506202045 55 175 0.0 3.0 0.00 0.31 0.31 79 1009.2
20260506201558 55 72 1.0 7.0 0.00 0.31 0.31 80 1009.2
20260506201044 55 63 1.0 7.0 0.00 0.31 0.31 80 1009.2
20260506200543 55 195 0.0 3.0 0.00 0.31 0.31 81 1009.2
20260506200042 55 155 0.0 3.0 0.00 0.31 0.31 80 1009.1
20260506195539 55 163 1.0 10.0 0.00 0.31 0.31 80 1008.9
20260506195300 55 191 1.0 10.0 0.00 0.31 0.31 80 1008.9
20260506194539 55 128 1.0 7.0 0.00 0.31 0.31 79 1008.8
20260506194301 55 198 2.0 7.0 0.00 0.31 0.31 80 1008.8
20260506193806 56 176 1.0 7.0 0.00 0.31 0.31 80 1008.7
20260506193255 56 134 1.0 5.0 0.00 0.31 0.31 80 1008.6
20260506193020 56 215 1.0 5.0 0.00 0.31 0.31 80 1008.6
20260506192037 56 158 1.0 9.0 0.00 0.31 0.31 80 1008.4
20260506191538 56 197 1.0 9.0 0.00 0.31 0.31 81 1008.6
20260506191030 56 178 2.0 7.0 0.00 0.31 0.31 80 1008.4
20260506190537 56 204 2.0 9.0 0.00 0.31 0.31 80 1008.4
20260506190031 56 140 1.0 9.0 0.00 0.31 0.31 81 1008.6
20260506185532 56 144 1.0 5.0 0.00 0.31 0.31 81 1008.6
20260506185030 56 251 1.0 6.0 0.00 0.31 0.31 81 1008.6
20260506184531 57 192 2.0 10.0 0.00 0.31 0.31 81 1008.4
20260506184032 57 86 2.0 10.0 0.00 0.31 0.31 81 1008.2
20260506183533 57 176 2.0 9.0 0.00 0.31 0.31 82 1008.2
20260506183030 56 203 2.0 9.0 0.00 0.31 0.31 82 1008.2
20260506182536 56 128 1.0 8.0 0.00 0.31 0.31 83 1008.2
20260506182031 56 180 2.0 8.0 0.00 0.31 0.31 82 1008.2
20260506181534 57 182 3.0 13.0 0.00 0.31 0.31 82 1008.0
20260506181248 57 205 2.0 13.0 0.00 0.31 0.31 83 1007.9
20260506180524 57 142 1.0 7.0 0.00 0.31 0.31 84 1008.0
20260506180023 58 89 1.0 7.0 0.00 0.31 0.31 84 1007.8
20260506175522 58 113 1.0 8.0 0.00 0.31 0.31 84 1007.8
20260506175251 58 169 2.0 8.0 0.00 0.31 0.31 83 1007.8
20260506174524 58 155 2.0 8.0 0.00 0.31 0.31 83 1007.7
20260506174244 58 142 2.0 6.0 0.00 0.31 0.31 84 1007.6
20260506173741 58 147 2.0 8.0 0.00 0.31 0.31 84 1007.6
20260506173238 58 88 2.0 11.0 0.00 0.31 0.31 84 1007.5
20260506172519 58 124 2.0 11.0 0.00 0.31 0.31 84 1007.7
20260506172019 58 134 2.0 9.0 0.00 0.31 0.31 85 1007.7
20260506171738 58 98 2.0 9.0 0.00 0.31 0.31 85 1007.7
20260506171018 58 137 1.0 7.0 0.00 0.31 0.31 86 1007.7
20260506170736 58 156 1.0 7.0 0.00 0.31 0.31 85 1007.6
20260506170018 58 143 0.0 7.0 0.00 0.31 0.31 87 1007.5
20260506165521 57 143 0.0 7.0 0.00 0.31 0.31 88 1007.6
20260506165019 57 143 1.0 10.0 0.00 0.31 0.31 87 1007.5
20260506164736 57 191 2.0 10.0 0.00 0.31 0.31 87 1007.6
20260506164017 57 190 2.0 12.0 0.00 0.31 0.31 86 1007.5
20260506163519 58 146 2.0 12.0 0.00 0.31 0.31 85 1007.5
20260506163018 58 174 2.0 8.0 0.00 0.31 0.31 87 1007.5
20260506162519 58 81 2.0 9.0 0.00 0.31 0.31 87 1007.2
20260506162019 58 126 2.0 9.0 0.00 0.31 0.31 87 1007.2
20260506161518 58 140 1.0 7.0 0.00 0.31 0.31 88 1007.3
20260506161031 58 81 0.0 3.0 0.00 0.31 0.31 88 1007.2
20260506160518 58 74 0.0 3.0 0.00 0.31 0.31 88 1007.2
20260506160031 58 105 0.0 3.0 0.00 0.31 0.31 88 1007.1
20260506155519 58 105 0.0 4.0 0.00 0.31 0.31 88 1007.1
20260506155019 58 61 1.0 4.0 0.00 0.31 0.31 88 1007.1
20260506154518 58 78 1.0 12.0 0.00 0.31 0.31 88 1007.0
20260506154018 58 92 2.0 12.0 0.00 0.31 0.31 88 1006.9
20260506153518 58 59 1.0 6.0 0.00 0.31 0.31 88 1006.9
20260506153019 58 132 1.0 7.0 0.00 0.31 0.31 88 1006.8
20260506152743 58 67 1.0 7.0 0.00 0.31 0.31 88 1006.7
20260506152018 58 57 1.0 6.0 0.00 0.31 0.31 88 1006.6
20260506152005 58 63 2.0 10.0 0.00 0.31 0.31 88 1006.6
20260506151018 58 85 1.0 10.0 0.00 0.31 0.31 88 1006.6
20260506150518 58 130 1.0 5.0 0.00 0.31 0.31 89 1006.6
20260506150239 58 131 1.0 6.0 0.00 0.31 0.31 89 1006.7
20260506145748 57 54 0.0 6.0 0.00 0.31 0.31 89 1006.7
20260506145019 57 55 0.0 0.0 0.00 0.31 0.31 89 1006.8
20260506144521 57 55 0.0 0.0 0.00 0.31 0.31 89 1006.7
20260506144019 57 55 0.0 0.0 0.00 0.31 0.31 89 1006.6
20260506143518 57 55 0.0 0.0 0.00 0.31 0.31 89 1006.8
20260506143019 57 55 0.0 0.0 0.00 0.31 0.31 89 1006.6
20260506142802 57 55 0.0 0.0 0.01 0.31 0.31 90 1006.6
20260506142018 57 55 0.0 0.0 0.01 0.31 0.31 90 1006.6
20260506141518 57 55 0.0 0.0 0.01 0.31 0.31 89 1006.6
20260506141018 57 55 0.0 0.0 0.01 0.31 0.31 90 1006.7
20260506140516 57 55 0.0 0.0 0.01 0.31 0.31 89 1006.7
20260506140017 56 55 0.0 0.0 0.01 0.31 0.31 89 1006.7
20260506135518 56 55 0.0 3.0 0.01 0.31 0.31 89 1006.6
20260506135012 56 55 0.0 3.0 0.01 0.31 0.31 89 1006.4
20260506134512 56 55 0.0 3.0 0.01 0.31 0.31 89 1006.0
20260506134013 56 57 0.0 2.0 0.01 0.31 0.31 89 1006.0
20260506133511 56 65 0.0 3.0 0.01 0.31 0.31 89 1006.2
20260506133012 56 66 0.0 3.0 0.00 0.30 0.31 89 1006.5
20260506132512 56 66 0.0 3.0 0.00 0.30 0.30 88 1006.4
20260506132234 56 66 0.0 3.0 0.00 0.30 0.30 88 1006.5
20260506131731 56 66 0.0 2.0 0.00 0.30 0.30 88 1006.7
20260506131010 56 66 0.0 4.0 0.01 0.30 0.30 88 1006.8
20260506130731 56 66 1.0 7.0 0.01 0.30 0.30 88 1006.7
20260506130010 56 66 1.0 7.0 0.01 0.30 0.30 88 1006.7
20260506125510 56 71 1.0 4.0 0.02 0.30 0.30 88 1006.7
20260506125234 56 78 0.0 4.0 0.03 0.30 0.30 89 1006.7
20260506124510 56 83 1.0 4.0 0.04 0.30 0.30 89 1006.6
20260506124007 56 83 1.0 7.0 0.07 0.30 0.30 89 1006.7
20260506123509 56 83 1.0 7.0 0.11 0.30 0.30 89 1006.7
20260506123009 56 55 0.0 1.0 0.13 0.30 0.30 90 1006.7
20260506122727 56 55 1.0 5.0 0.13 0.30 0.30 90 1006.5
20260506122009 56 55 1.0 5.0 0.14 0.30 0.30 90 1006.6
20260506121509 55 56 0.0 3.0 0.15 0.30 0.30 91 1006.6
20260506121019 55 49 0.0 2.0 0.15 0.29 0.29 91 1006.7
20260506120730 55 49 0.0 2.0 0.15 0.29 0.29 92 1006.7
20260506120006 55 49 0.0 0.0 0.16 0.29 0.29 92 1006.9
20260506115506 55 49 0.0 0.0 0.15 0.28 0.28 92 1007.2
20260506115007 55 49 0.0 0.0 0.15 0.27 0.28 92 1007.3
20260506114509 55 49 0.0 0.0 0.14 0.26 0.27 92 1007.4
20260506114006 55 49 0.0 0.0 0.12 0.23 0.23 92 1007.5
20260506113728 55 49 0.0 0.0 0.08 0.19 0.20 92 1007.3
20260506113007 55 49 0.0 0.0 0.07 0.17 0.18 91 1007.1
20260506112507 55 49 0.0 0.0 0.08 0.17 0.17 91 1007.0
20260506112006 55 49 0.0 0.0 0.07 0.16 0.16 91 1006.9
20260506111517 55 49 0.0 0.0 0.07 0.15 0.15 91 1006.9
20260506111003 55 49 0.0 0.0 0.07 0.14 0.14 91 1007.0
20260506110506 55 49 0.0 0.0 0.08 0.14 0.14 91 1007.1
20260506110002 55 49 0.0 0.0 0.08 0.13 0.13 91 1007.0
20260506105501 55 49 0.0 0.0 0.08 0.13 0.13 90 1006.9
20260506105000 55 49 0.0 0.0 0.08 0.12 0.12 90 1006.8
20260506104458 55 49 0.0 0.0 0.09 0.12 0.12 90 1006.7
20260506103958 55 49 0.0 0.0 0.08 0.11 0.11 90 1006.8
20260506103459 55 49 0.0 0.0 0.08 0.11 0.11 90 1006.8
20260506102957 55 49 0.0 0.0 0.07 0.10 0.10 89 1006.8
20260506102454 55 49 0.0 0.0 0.06 0.09 0.09 89 1006.9
20260506101956 55 49 0.0 0.0 0.06 0.09 0.09 89 1007.0
20260506101454 55 49 0.0 0.0 0.05 0.08 0.08 89 1007.0
20260506100953 55 49 0.0 0.0 0.04 0.07 0.07 89 1007.1
20260506100454 55 49 0.0 0.0 0.03 0.06 0.07 89 1007.1
20260506100218 55 49 0.0 0.0 0.02 0.05 0.06 89 1007.0
20260506095451 55 49 0.0 0.0 0.03 0.05 0.05 89 1007.1
20260506094952 55 49 0.0 0.0 0.02 0.04 0.04 88 1007.0
20260506094450 56 49 0.0 0.0 0.01 0.03 0.03 88 1007.1
20260506093949 56 49 0.0 0.0 0.01 0.03 0.03 88 1007.1
20260506093447 56 49 0.0 0.0 0.01 0.03 0.03 87 1007.0
20260506093208 56 49 0.0 0.0 0.01 0.03 0.03 87 1006.8
20260506092448 56 49 0.0 1.0 0.01 0.03 0.03 86 1006.6
20260506091946 56 49 0.0 1.0 0.01 0.03 0.03 86 1006.6
20260506091449 56 49 0.0 0.0 0.01 0.03 0.03 87 1006.7
20260506090947 56 49 0.0 0.0 0.01 0.03 0.03 87 1007.1
20260506090448 56 49 0.0 0.0 0.01 0.03 0.03 86 1007.1
20260506085946 56 49 0.0 0.0 0.02 0.03 0.03 86 1007.2
20260506085701 56 49 0.0 0.0 0.01 0.02 0.02 85 1007.3
20260506084941 56 49 0.0 0.0 0.01 0.02 0.02 84 1007.3
20260506084701 56 49 0.0 2.0 0.01 0.02 0.02 84 1007.3
20260506083943 57 49 0.0 2.0 0.01 0.02 0.02 83 1007.2
20260506083439 57 74 0.0 2.0 0.01 0.02 0.02 83 1007.2
20260506082937 57 74 0.0 2.0 0.01 0.02 0.02 83 1007.3
20260506082437 57 74 0.0 1.0 0.01 0.02 0.02 82 1007.4
20260506081937 57 74 0.0 2.0 0.01 0.02 0.02 81 1007.6
20260506081441 58 74 0.0 3.0 0.01 0.02 0.02 80 1007.6
20260506081200 58 75 1.0 4.0 0.01 0.02 0.02 79 1007.7
20260506080437 58 92 1.0 4.0 0.01 0.02 0.02 79 1007.9
20260506073413 59 53 0.0 4.0 0.01 0.01 0.01 74 1007.9
20260506072913 59 111 1.0 8.0 0.01 0.01 0.01 74 1008.0
20260506072413 60 111 2.0 8.0 0.01 0.01 0.01 73 1008.0
20260506071911 60 119 2.0 8.0 0.01 0.01 0.01 73 1008.0
20260506071413 60 117 1.0 12.0 0.01 0.01 0.01 73 1008.2
20260506070908 60 170 2.0 12.0 0.01 0.01 0.01 73 1008.1
20260506070406 60 69 3.0 13.0 0.01 0.01 0.01 73 1008.2
20260506062405 65 184 3.0 14.0 0.00 0.00 0.00 55 1008.4
20260506061905 66 151 3.0 14.0 0.00 0.00 0.00 53 1008.3
20260506061405 67 49 4.0 16.0 0.00 0.00 0.00 49 1008.0
20260506061133 67 94 5.0 16.0 0.00 0.00 0.00 49 1007.9
20260506060401 67 132 3.0 14.0 0.00 0.00 0.00 48 1008.0
20260506050902 59 69 1.0 7.0 0.00 0.00 0.00 72 1008.1
20260506050401 58 105 1.0 8.0 0.00 0.00 0.00 78 1008.1
20260506044857 56 163 0.0 4.0 0.00 0.00 0.00 86 1008.2
20260506044620 56 148 0.0 0.0 0.00 0.00 0.00 87 1008.2
20260506043858 56 148 0.0 0.0 0.00 0.00 0.00 86 1008.2
20260506043357 56 148 0.0 0.0 0.00 0.00 0.00 87 1008.3
20260506042857 56 148 0.0 0.0 0.00 0.00 0.00 87 1008.3
20260506042359 56 148 0.0 0.0 0.00 0.00 0.00 86 1008.4
20260506041853 56 148 0.0 0.0 0.00 0.00 0.00 86 1008.3
20260506041354 56 148 0.0 0.0 0.00 0.00 0.00 87 1008.4
20260506040853 56 148 0.0 0.0 0.00 0.00 0.00 86 1008.4
20260506040610 56 148 0.0 0.0 0.00 0.00 0.00 86 1008.4
20260506040112 56 148 0.0 0.0 0.00 0.00 0.00 86 1008.4
20260506035352 56 148 0.0 0.0 0.00 0.00 0.00 86 1008.4
20260506034847 56 148 0.0 0.0 0.00 0.00 0.00 86 1008.4
20260506034345 56 148 0.0 0.0 0.00 0.00 0.00 86 1008.3
20260506033844 56 148 0.0 0.0 0.00 0.00 0.00 86 1008.3
20260506033345 56 148 0.0 0.0 0.00 0.00 0.00 86 1008.3
20260506032843 56 148 0.0 0.0 0.00 0.00 0.00 85 1008.3
20260506032342 56 148 0.0 0.0 0.00 0.00 0.00 84 1008.2
20260506032107 57 148 0.0 0.0 0.00 0.00 0.00 84 1008.2
20260506031817 57 148 0.0 0.0 0.00 0.00 0.00 84 1008.2
20260506030841 57 148 0.0 0.0 0.00 0.00 0.00 84 1008.1
20260506030340 57 148 0.0 0.0 0.00 0.00 0.00 84 1008.1
20260506025838 57 148 0.0 0.0 0.00 0.00 0.00 84 1008.3
20260506025338 57 148 0.0 0.0 0.00 0.00 0.00 84 1008.4
20260506024839 57 148 0.0 0.0 0.00 0.00 0.00 84 1008.3
20260506024338 58 148 0.0 0.0 0.00 0.00 0.00 85 1008.6
20260506023834 58 148 0.0 0.0 0.00 0.00 0.00 85 1008.6
20260506023329 58 148 0.0 0.0 0.00 0.00 0.00 84 1008.6
20260506022829 58 148 0.0 0.0 0.00 0.00 0.00 84 1008.6
20260506022551 58 148 0.0 0.0 0.00 0.00 0.00 84 1008.6
20260506021825 58 148 0.0 0.0 0.00 0.00 0.00 83 1008.8
20260506021325 58 148 0.0 0.0 0.00 0.00 0.00 83 1008.6
20260506020841 58 148 0.0 0.0 0.00 0.00 0.00 83 1008.7
20260506020325 58 148 0.0 0.0 0.00 0.00 0.00 83 1008.6
20260506015825 59 148 0.0 0.0 0.00 0.00 0.00 82 1008.6
20260506015324 59 148 0.0 0.0 0.00 0.00 0.00 82 1008.6
20260506014825 59 148 0.0 0.0 0.00 0.00 0.00 82 1008.6
20260506014815 59 148 0.0 0.0 0.00 0.00 0.00 82 1008.7
20260506013824 59 148 0.0 0.0 0.00 0.00 0.00 82 1008.6
20260506013324 60 148 0.0 0.0 0.00 0.00 0.00 81 1008.6
20260506012824 60 148 0.0 0.0 0.00 0.00 0.00 81 1008.6
20260506012323 60 148 0.0 0.0 0.00 0.00 0.00 80 1008.6
20260506011823 60 148 0.0 0.0 0.00 0.00 0.00 80 1008.6
20260506011323 60 148 0.0 0.0 0.00 0.00 0.00 79 1008.6
20260506010823 61 148 0.0 0.0 0.00 0.00 0.00 79 1008.6
20260506010325 61 148 0.0 0.0 0.00 0.00 0.00 78 1008.6
20260506005822 61 148 0.0 0.0 0.00 0.00 0.00 78 1008.6
20260506005322 61 148 0.0 0.0 0.00 0.00 0.00 78 1008.4
20260506004822 62 148 0.0 0.0 0.00 0.00 0.00 77 1008.4
20260506004325 62 148 0.0 0.0 0.00 0.00 0.00 77 1008.3
20260506004049 62 148 0.0 0.0 0.00 0.00 0.00 76 1008.4
20260506003324 62 148 0.0 0.0 0.00 0.00 0.00 76 1008.4
20260506002822 63 148 0.0 0.0 0.00 0.00 0.00 75 1008.6
20260506002320 63 148 0.0 0.0 0.00 0.00 0.00 75 1008.4
20260506001820 64 148 0.0 0.0 0.00 0.00 0.00 74 1008.3
20260506001320 64 148 0.0 0.0 0.00 0.00 0.00 74 1008.4
20260506000821 64 148 0.0 0.0 0.00 0.00 0.00 73 1008.3
20260506000323 65 148 0.0 0.0 0.00 0.00 0.00 73 1008.1
20260505235820 65 148 0.0 0.0 0.00 0.00 0.00 71 1008.2
20260505235318 65 148 0.0 0.0 0.00 0.00 0.00 72 1008.3
20260505234818 65 148 0.0 0.0 0.00 0.00 0.00 72 1008.3
20260505234318 66 148 0.0 0.0 0.00 0.00 0.00 72 1008.4
20260505233822 67 148 0.0 0.0 0.00 0.00 0.00 71 1008.2
20260505233818 66 148 0.0 0.0 0.00 0.00 0.00 71 1008.3
20260505232816 67 148 0.0 0.0 0.00 0.00 0.00 69 1008.1
20260505232316 67 148 0.0 0.0 0.00 0.00 0.00 68 1008.0
20260505231829 68 148 0.0 0.0 0.00 0.00 0.00 67 1008.0
20260505231315 68 148 0.0 0.0 0.00 0.00 0.00 67 1008.0
20260505230817 68 148 0.0 0.0 0.00 0.00 0.00 64 1007.9
20260505230316 69 148 0.0 0.0 0.00 0.00 0.00 64 1007.9
20260505225816 69 148 0.0 0.0 0.00 0.00 0.00 63 1007.9
20260505225539 69 148 0.0 1.0 0.00 0.00 0.00 63 1007.9
20260505224813 69 148 0.0 1.0 0.00 0.00 0.00 63 1008.0